Location: Unspecified
(50.1700°N, 6.8600°E)
Time: 10:23:47
(UTC+00:00)

Meteor 2-10 - Pass Details

Date: 24 January 2019
Orbit: 739 x 868 km, 81.2° (Epoch: 21 April)

Event Time Altitude Azimuth Distance (km) Brightness Sun altitude
Rises 06:00:12 0° 203° (SSW) 3,317 7.2 -12.2°
Reaches altitude 10° 06:02:39 10° 208° (SSW) 2,370 6.4 -11.9°
Maximum altitude 06:07:54 56° 286° (WNW) 925 4.1 -11.1°
Drops below altitude 10° 06:13:00 10° 5° (N) 2,308 6.4 -10.3°
Sets 06:15:23 0° 10° (N) 3,223 7.1 -9.9°
